Le nostre stazioni meteo in Italia

Pubblicità
Il mio iltempo24.it
Rimini, Italia (16149): Temperatura & dewpoint: 09.11.2018 08:00:00 - 15.11.2018 08:00:00 (CET)Rimini, Italia (16149): velocità del vento: 09.11.2018 08:00:00 - 15.11.2018 08:00:00 (CET)Rimini, Italia (16149): direzione del vento: 09.11.2018 08:00:00 - 15.11.2018 08:00:00 (CET)Rimini, Italia (16149): reduced air pressure: 09.11.2018 08:00:00 - 15.11.2018 08:00:00 (CET)Rimini, Italia (16149): visibility: 09.11.2018 08:00:00 - 15.11.2018 08:00:00 (CET)Rimini, Italia (16149): precipitazioni: 09.11.2018 08:00:00 - 15.11.2018 08:00:00 (CET)
Data & Tempo tt [°C] td [°C] ff [km/h] ff [kn] dd ppp [hPa] vv [km] rr [mm]
15.11.2018 08:00:00 12,0 11,0 9 5 NO - 1,2 -
15.11.2018 07:00:00 12,1 11,6 8 4 ONO 1026,0 1,9 -
15.11.2018 06:00:00 12,0 12,0 13 7 ONO - 2,0 -
15.11.2018 05:00:00 12,0 12,0 8 4 O - 1,8 -
15.11.2018 04:00:00 12,2 11,8 11 6 O 1026,0 1,3 0,0
15.11.2018 03:00:00 12,0 12,0 13 7 O - 1,3 -
15.11.2018 02:00:00 11,0 11,0 13 7 O - 1,6 -
15.11.2018 01:00:00 10,7 10,4 9 5 O 1026,4 1,3 -
15.11.2018 00:00:00 11,0 11,0 9 5 O - 1,6 -
14.11.2018 23:00:00 11,0 11,0 8 4 O - 4,0 -
14.11.2018 22:00:00 11,7 11,2 9 5 O 1027,2 3,5 0,0
14.11.2018 21:00:00 12,0 11,0 8 4 O - 3,5 -
14.11.2018 20:00:00 13,0 12,0 11 6 O - 3,0 -
14.11.2018 19:00:00 14,0 13,0 9 5 OSO 1026,9 4,0 -
14.11.2018 18:00:00 14,0 13,0 9 5 O - 3,0 -
14.11.2018 17:00:00 14,0 13,0 9 5 O - 2,5 -
14.11.2018 16:00:00 14,7 13,7 11 6 ONO 1026,7 2,0 0,0
14.11.2018 15:00:00 15,0 14,0 13 7 ONO - 2,5 -
14.11.2018 14:00:00 15,0 14,0 11 6 O - 2,0 -
14.11.2018 13:00:00 14,6 13,8 13 7 O 1027,9 2,0 -
14.11.2018 12:00:00 14,0 14,0 11 6 O - 2,0 -
14.11.2018 11:00:00 14,0 13,0 13 7 O - 2,5 -
14.11.2018 10:00:00 13,7 12,5 5 3 O 1028,8 5 0,0
14.11.2018 09:00:00 13,0 12,0 4 2 ONO - 6 -
14.11.2018 08:00:00 12,0 12,0 2 1 - - 7 -
14.11.2018 07:00:00 12,2 11,3 4 2 SO 1027,9 10 -
14.11.2018 06:00:00 12,0 11,0 2 1 - - 10 -
14.11.2018 05:00:00 11,0 11,0 4 2 S - 10 -
14.11.2018 04:00:00 10,9 10,4 2 1 SSE 1027,8 8 0,0
14.11.2018 03:00:00 11,0 10,0 8 4 SSO - 10 -
14.11.2018 02:00:00 10,0 9,0 4 2 SSO - 9 -
14.11.2018 01:00:00 9,0 8,7 5 3 S 1028,3 6 -
14.11.2018 00:00:00 9,0 9,0 8 4 S - 2,2 -
13.11.2018 23:00:00 9,0 9,0 8 4 SSO - 5 -
13.11.2018 22:00:00 9,2 8,9 2 1 SSO 1028,6 2,0 0,0
13.11.2018 21:00:00 9,0 9,0 4 2 - - 3,0 -
13.11.2018 20:00:00 10,0 10,0 4 2 - - 3,0 -
13.11.2018 19:00:00 10,7 10,2 0 0 N 1027,7 5 -
13.11.2018 18:00:00 12,0 12,0 4 2 ESE - 5 -
13.11.2018 17:00:00 14,0 12,0 5 3 E - 8 -
13.11.2018 16:00:00 15,2 12,1 4 2 - 1027,4 8 0,0
13.11.2018 15:00:00 15,0 12,0 8 4 ENE - 7 -
13.11.2018 14:00:00 15,0 12,0 5 3 E - 6 -
13.11.2018 13:00:00 14,6 11,7 5 3 ESE 1028,1 5 -
13.11.2018 12:00:00 14,0 12,0 5 3 ENE - 4,5 -
13.11.2018 11:00:00 13,0 12,0 2 1 - - 4,5 -
13.11.2018 10:00:00 12,8 11,6 4 2 - 1028,9 4,0 0,0
13.11.2018 09:00:00 12,0 11,0 5 3 S - 4,0 -
13.11.2018 08:00:00 12,0 11,0 9 5 S - 4,0 -
13.11.2018 07:00:00 11,7 11,2 8 4 S 1027,6 6 -
13.11.2018 06:00:00 12,0 12,0 5 3 SSO - 4,3 -
13.11.2018 05:00:00 13,0 12,0 5 3 SSO - 3,1 -
13.11.2018 04:00:00 12,5 12,3 5 3 S 1027,8 2,6 0,0
13.11.2018 03:00:00 13,0 12,0 5 3 SSO - 2,7 -
13.11.2018 02:00:00 13,0 12,0 4 2 - - 2,0 -
13.11.2018 01:00:00 12,6 12,5 8 4 NO 1027,9 1,2 -
13.11.2018 00:00:00 13,0 13,0 9 5 O - 1,0 -
12.11.2018 23:00:00 13,0 13,0 8 4 NO - 0,4 -
12.11.2018 22:00:00 13,0 12,8 8 4 O 1027,8 0,5 0,0
12.11.2018 21:00:00 13,0 13,0 5 3 OSO - 0,8 -
12.11.2018 20:00:00 14,0 13,0 5 3 S - 3,0 -
12.11.2018 19:00:00 13,7 12,8 2 1 - 1027,1 3,0 -
12.11.2018 18:00:00 14,0 13,0 2 1 - - 3,0 -
12.11.2018 17:00:00 14,0 13,0 4 2 - - 3,0 -
12.11.2018 16:00:00 14,0 13,0 5 3 NNE 1026,6 3,0 0,0
12.11.2018 15:00:00 14,0 13,0 5 3 NE - 3,0 -
12.11.2018 14:00:00 14,0 13,0 8 4 NNE - 3,0 -
12.11.2018 13:00:00 14,4 13,1 8 4 NNE 1026,5 5 -
12.11.2018 12:00:00 15,0 13,0 8 4 N - 10 -
12.11.2018 11:00:00 15,0 13,0 9 5 NE - 10 -
12.11.2018 10:00:00 14,6 12,0 4 2 - 1026,6 8 0,0
12.11.2018 09:00:00 11,0 11,0 2 1 - - 8 -
12.11.2018 08:00:00 8,0 8,0 5 3 SE - 7 -
12.11.2018 07:00:00 7,5 7,2 0 0 N 1025,7 6 -
12.11.2018 06:00:00 8,0 8,0 2 1 - - 4,0 -
12.11.2018 05:00:00 9,0 8,0 2 1 - - 10 -
12.11.2018 04:00:00 8,3 8,0 4 2 SSO 1025,0 10 0,0
12.11.2018 03:00:00 9,0 8,0 2 1 - - 10 -
12.11.2018 02:00:00 9,0 8,0 4 2 - - 10 -
12.11.2018 01:00:00 10,0 9,6 4 2 S 1024,1 8 -
12.11.2018 00:00:00 10,0 9,0 4 2 O - 10 -
11.11.2018 23:00:00 11,0 11,0 8 4 S - 8 -
11.11.2018 22:00:00 11,0 10,5 5 3 S 1023,2 6 0,0
11.11.2018 21:00:00 12,0 11,0 4 2 - - 8 -
11.11.2018 20:00:00 13,0 12,0 5 3 SO - 10 -
11.11.2018 19:00:00 13,4 12,6 4 2 SSE 1022,2 10 -
11.11.2018 18:00:00 15,0 13,0 4 2 - - 10 -
11.11.2018 17:00:00 17,0 13,0 2 1 - - 10 -
11.11.2018 16:00:00 16,7 13,2 4 2 - 1021,1 10 0,0
11.11.2018 15:00:00 17,0 14,0 9 5 NE - 10 -
11.11.2018 14:00:00 18,0 14,0 9 5 NE - 10 -
11.11.2018 13:00:00 18,3 12,8 8 4 ENE 1020,2 10 -
11.11.2018 12:00:00 16,0 13,0 5 3 ENE - 10 -
11.11.2018 11:00:00 16,0 12,0 4 2 - - 10 -
11.11.2018 10:00:00 15,0 12,2 4 2 - 1019,5 10 0,0
11.11.2018 09:00:00 12,0 12,0 2 1 - - 10 -
11.11.2018 08:00:00 9,0 8,0 4 2 - - 8 -
11.11.2018 07:00:00 7,2 7,1 4 2 SSO 1018,3 4,0 -
11.11.2018 06:00:00 8,0 8,0 2 1 - - 0,3 -
11.11.2018 05:00:00 9,0 8,0 5 3 SE - 0,4 -
11.11.2018 04:00:00 9,3 9,2 5 3 S 1017,5 0,1 0,0
11.11.2018 03:00:00 10,0 9,0 8 4 OSO - 2,7 -
11.11.2018 02:00:00 11,0 10,0 5 3 SE - 1,4 -
11.11.2018 01:00:00 11,1 10,7 5 3 S 1017,5 1,9 -
11.11.2018 00:00:00 13,0 12,0 5 3 S - 4,2 -
10.11.2018 23:00:00 13,0 13,0 4 2 SSE - 4,0 -
10.11.2018 22:00:00 13,5 12,8 2 1 S 1017,4 4,0 0,0
10.11.2018 21:00:00 14,0 13,0 4 2 - - 4,0 -
10.11.2018 20:00:00 13,0 13,0 2 1 SO - 3,5 -
10.11.2018 19:00:00 13,2 12,8 2 1 S 1017,1 3,0 -
10.11.2018 18:00:00 13,0 13,0 4 2 SSE - 3,0 -
10.11.2018 17:00:00 14,0 13,0 4 2 ESE - 3,0 -
10.11.2018 16:00:00 14,4 13,0 8 4 NE 1016,0 6 0,0
10.11.2018 15:00:00 15,0 13,0 9 5 NE - 10 -
10.11.2018 14:00:00 15,0 13,0 8 4 NE - 10 -
10.11.2018 13:00:00 15,3 12,7 5 3 NNE 1016,7 8 -
10.11.2018 12:00:00 15,0 12,0 5 3 N - 6 -
10.11.2018 11:00:00 14,0 13,0 4 2 - - 5 -
10.11.2018 10:00:00 13,6 12,5 4 2 ONO 1017,9 5 0,0
10.11.2018 09:00:00 12,0 12,0 4 2 - - 5 -
10.11.2018 08:00:00 12,0 11,0 5 3 SO - 4,0 -
10.11.2018 07:00:00 11,2 10,9 2 1 - 1017,2 3,4 -
10.11.2018 06:00:00 11,0 11,0 4 2 - - 3,2 -
10.11.2018 05:00:00 11,0 10,0 4 2 OSO - 0,7 -
10.11.2018 04:00:00 12,0 11,5 2 1 - 1017,4 4,1 0,0
10.11.2018 03:00:00 12,0 12,0 4 2 OSO - 5 -
10.11.2018 02:00:00 12,0 12,0 4 2 SSO - 5 -
10.11.2018 01:00:00 11,7 11,1 4 2 SSO 1018,1 5 -
10.11.2018 00:00:00 12,0 11,0 5 3 SSO - 3,3 -
09.11.2018 23:00:00 12,0 11,0 5 3 S - 5 -
09.11.2018 22:00:00 11,4 11,2 5 3 S 1018,5 6 0,0
09.11.2018 21:00:00 12,0 11,0 4 2 S - 6 -
09.11.2018 20:00:00 12,0 12,0 4 2 SSO - 7 -
09.11.2018 19:00:00 12,6 11,9 2 1 - 1018,4 7 -
09.11.2018 18:00:00 15,0 13,0 2 1 - - 8 -
09.11.2018 17:00:00 15,0 13,0 5 3 ENE - 8 -
09.11.2018 16:00:00 15,4 13,1 9 5 ENE 1018,0 10 0,0
09.11.2018 15:00:00 16,0 13,0 11 6 NE - 10 -
09.11.2018 14:00:00 16,0 13,0 11 6 ENE - 10 -
09.11.2018 13:00:00 15,6 12,9 9 5 NE 1018,6 10 -
09.11.2018 12:00:00 15,0 12,0 9 5 NE - 10 -
09.11.2018 11:00:00 15,0 12,0 5 3 NNE - 10 -
09.11.2018 10:00:00 13,8 10,6 4 2 - 1020,3 10 0,0
09.11.2018 09:00:00 11,0 10,0 4 2 - - 10 -
09.11.2018 08:00:00 9,0 9,0 4 2 - - 10 -

tt = Temperatura
td = dewpoint
ff = velocità del vento
dd = direzione del vento
ppp = reduced air pressure
vv = visibility
rr = precipitazioni

Stazioni seguenti

WeatherPro
AMSI
MeteoEarth